TimeCET,TemperatureF,Dew PointF,Humidity,Sea Level PressureIn,VisibilityMPH,Wind Direction,Wind SpeedMPH,Gust SpeedMPH,PrecipitationIn,Events,Conditions,WindDirDegrees,DateUTC
12:00 AM,66.2,64.4,94,30.18,6.2,Calm,Calm,-,N/A,,Scattered Clouds,0,2013-10-27 23:00:00
12:30 AM,62.6,60.8,94,30.18,6.2,Calm,Calm,-,N/A,,Scattered Clouds,0,2013-10-27 23:30:00
1:00 AM,62.6,60.8,94,30.15,6.2,Calm,Calm,-,N/A,,Scattered Clouds,0,2013-10-28 00:00:00
1:30 AM,62.6,60.8,94,30.15,1.9,Calm,Calm,-,N/A,Fog,Patches of Fog,0,2013-10-28 00:30:00
2:00 AM,62.6,60.8,94,30.15,1.9,Calm,Calm,-,N/A,Fog,Patches of Fog,0,2013-10-28 01:00:00
2:13 AM,62.6,60.8,94,30.12,0.1,Calm,Calm,-,N/A,Fog,Patches of Fog,0,2013-10-28 01:13:00
2:30 AM,62.6,60.8,94,30.12,0.1,NE,1.2,-,N/A,Fog,Patches of Fog,40,2013-10-28 01:30:00
3:00 AM,60.8,59.0,94,30.12,0.1,Calm,Calm,-,N/A,Fog,Patches of Fog,0,2013-10-28 02:00:00
3:30 AM,59.0,59.0,100,30.12,0.6,Calm,Calm,-,N/A,Fog,Patches of Fog,0,2013-10-28 02:30:00
4:00 AM,60.8,59.0,94,30.09,0.6,Calm,Calm,-,N/A,Fog,Patches of Fog,0,2013-10-28 03:00:00
4:30 AM,59.0,59.0,100,30.09,0.6,Calm,Calm,-,N/A,Fog,Patches of Fog,0,2013-10-28 03:30:00
5:00 AM,59.0,59.0,100,30.09,0.9,Calm,Calm,-,N/A,Fog,Patches of Fog,0,2013-10-28 04:00:00
5:30 AM,60.8,59.0,94,30.09,0.9,Calm,Calm,-,N/A,Fog,Patches of Fog,0,2013-10-28 04:30:00
6:00 AM,60.8,59.0,94,30.09,0.1,Calm,Calm,-,N/A,Fog,Patches of Fog,0,2013-10-28 05:00:00
6:30 AM,60.8,59.0,94,30.06,0.1,NE,1.2,-,N/A,Fog,Patches of Fog,50,2013-10-28 05:30:00
7:00 AM,60,60,99,30.08,0,Calm,Calm,,,Fog,Patches of Fog,,2013-10-28 06:00:00
7:00 AM,60.8,59.0,94,30.06,0.1,Calm,Calm,-,N/A,Fog,Patches of Fog,0,2013-10-28 06:00:00
7:21 AM,60.8,60.8,100,30.06,0.5,Calm,Calm,-,N/A,Fog,Patches of Fog,0,2013-10-28 06:21:00
7:30 AM,60.8,60.8,100,30.06,0.5,Calm,Calm,-,N/A,Fog,Patches of Fog,0,2013-10-28 06:30:00
8:00 AM,60.8,60.8,100,30.06,2.5,Calm,Calm,-,N/A,Fog,Patches of Fog,0,2013-10-28 07:00:00
8:30 AM,62.6,62.6,100,30.09,2.5,Calm,Calm,-,N/A,Fog,Patches of Fog,0,2013-10-28 07:30:00
8:45 AM,64.4,64.4,100,30.09,4.3,Calm,Calm,-,N/A,Fog,Mostly Cloudy,0,2013-10-28 07:45:00
9:00 AM,64.4,64.4,100,30.09,5.0,Calm,Calm,-,N/A,Fog,Mostly Cloudy,0,2013-10-28 08:00:00
9:30 AM,66.2,66.2,100,30.09,5.6,Calm,Calm,-,N/A,,Mostly Cloudy,0,2013-10-28 08:30:00
10:00 AM,69.8,68.0,94,30.09,6.2,Calm,Calm,-,N/A,,Mostly Cloudy,0,2013-10-28 09:00:00
10:30 AM,73.4,68.0,83,30.09,6.2,SW,5.8,-,N/A,,Mostly Cloudy,230,2013-10-28 09:30:00
11:00 AM,75.2,68.0,78,30.09,6.2,SW,9.2,-,N/A,,Mostly Cloudy,220,2013-10-28 10:00:00
11:30 AM,77.0,68.0,74,30.09,6.2,SW,9.2,-,N/A,,Mostly Cloudy,230,2013-10-28 10:30:00
12:00 PM,75.2,68.0,78,30.06,6.2,SW,10.4,-,N/A,,Mostly Cloudy,230,2013-10-28 11:00:00
12:30 PM,75.2,66.2,73,30.06,6.2,SW,9.2,-,N/A,,Mostly Cloudy,220,2013-10-28 11:30:00
1:00 PM,76,66,64,30.06,11,SW,9.2,,,,Partly Cloudy,220,2013-10-28 12:00:00
1:00 PM,75.2,66.2,73,30.04,6.2,SW,8.1,-,N/A,,Scattered Clouds,230,2013-10-28 12:00:00
1:30 PM,77.0,66.2,69,30.04,6.2,WSW,5.8,-,N/A,,Partly Cloudy,240,2013-10-28 12:30:00
2:00 PM,77.0,68.0,74,30.04,6.2,WSW,8.1,-,N/A,,Partly Cloudy,240,2013-10-28 13:00:00
2:30 PM,77.0,68.0,74,30.01,-9999.0,WSW,6.9,-,N/A,,Clear,240,2013-10-28 13:30:00
3:00 PM,75.2,68.0,78,30.01,6.2,SW,8.1,-,N/A,,Partly Cloudy,220,2013-10-28 14:00:00
3:30 PM,75.2,68.0,78,30.01,6.2,WSW,9.2,-,N/A,,Partly Cloudy,240,2013-10-28 14:30:00
4:00 PM,75.2,68.0,78,30.01,6.2,WSW,9.2,-,N/A,,Partly Cloudy,240,2013-10-28 15:00:00
4:30 PM,75.2,68.0,78,29.98,6.2,WSW,9.2,-,N/A,,Partly Cloudy,240,2013-10-28 15:30:00
5:00 PM,75.2,68.0,78,29.98,6.2,WSW,9.2,-,N/A,,Partly Cloudy,240,2013-10-28 16:00:00
5:30 PM,73.4,68.0,83,29.98,6.2,SW,8.1,-,N/A,,Partly Cloudy,230,2013-10-28 16:30:00
6:00 PM,73.4,66.2,78,29.98,6.2,SW,5.8,-,N/A,,Scattered Clouds,220,2013-10-28 17:00:00
6:30 PM,73.4,66.2,78,29.98,6.2,SSW,3.5,-,N/A,,Scattered Clouds,210,2013-10-28 17:30:00
7:00 PM,73,67,75,30.00,10,SW,4.6,,,,Mostly Cloudy,230,2013-10-28 18:00:00
7:00 PM,73.4,66.2,78,29.98,6.2,Variable,2.3,-,N/A,,Mostly Cloudy,0,2013-10-28 18:00:00
7:30 PM,73.4,68.0,83,29.98,6.2,Variable,2.3,-,N/A,,Mostly Cloudy,0,2013-10-28 18:30:00
8:00 PM,73.4,66.2,78,29.98,6.2,Calm,Calm,-,N/A,,Mostly Cloudy,0,2013-10-28 19:00:00
8:30 PM,73.4,66.2,78,29.98,6.2,South,1.2,-,N/A,,Mostly Cloudy,180,2013-10-28 19:30:00
9:00 PM,71.6,66.2,83,29.98,6.2,Calm,Calm,-,N/A,,Mostly Cloudy,0,2013-10-28 20:00:00
9:30 PM,69.8,64.4,83,29.98,6.2,Calm,Calm,-,N/A,,Scattered Clouds,0,2013-10-28 20:30:00
10:00 PM,68.0,64.4,88,29.98,6.2,Calm,Calm,-,N/A,,Scattered Clouds,0,2013-10-28 21:00:00
10:30 PM,66.2,62.6,88,29.98,6.2,Variable,1.2,-,N/A,,Scattered Clouds,0,2013-10-28 21:30:00
11:00 PM,66.2,64.4,94,29.98,6.2,Variable,2.3,-,N/A,,Mostly Cloudy,0,2013-10-28 22:00:00
11:30 PM,66.2,64.4,94,29.95,6.2,Calm,Calm,-,N/A,,Mostly Cloudy,0,2013-10-28 22:30:00